Overview Statistics Trail Chart Weather Telemetry Raw packets
 

This is the latest recevied weather packets stored in our database for station/object W5DNT. If no packets are shown the sender has not sent any weather packets the latest 10 day(s).

<< 35 36 37 38 39 >>
Time Temp. Humidity Pressure Rain* Wind** Luminosity Snow
1787814925 26.67° C 62% 1012.5 hPa 0 mm - - -
1787814033 26.67° C 62% 1012.5 hPa 0 mm - - -
1787813121 27.22° C 61% 1012.5 hPa 0 mm - - -
1787812221 27.22° C 61% 1012.5 hPa 0 mm - - -
1787811320 27.22° C 61% 1012.4 hPa 0 mm - - -
1787810416 27.78° C 60% 1012.6 hPa 0 mm - - -
1787809515 27.78° C 59% 1012.6 hPa 0 mm - - -
1787808614 27.78° C 59% 1012.6 hPa 0 mm - - -
1787807711 27.78° C 58% 1012.8 hPa 0 mm - - -
1787806817 27.78° C 56% 1012.9 hPa 0 mm - - -
1787805907 28.33° C 56% 1012.8 hPa 0 mm - - -
1787805011 28.33° C 55% 1012.7 hPa 0 mm - - -
1787804108 28.89° C 54% 1012.4 hPa 0 mm - - -
1787803208 29.44° C 53% 1012.4 hPa 0 mm - - -
1787802306 29.44° C 53% 1012.3 hPa 0 mm - - -
1787801411 30° C 52% 1012.3 hPa 0 mm - - -
1787800505 30° C 51% 1012.2 hPa 0 mm - - -
1787799607 30.56° C 49% 1012.1 hPa 0 mm - - -
1787798704 31.11° C 49% 1012.1 hPa 0 mm - - -
1787797802 31.67° C 48% 1011.9 hPa 0 mm - - -
1787796903 32.22° C 46% 1011.5 hPa 0 mm - - -
1787796002 32.78° C 45% 1011.4 hPa 0 mm - - -
1787795103 33.89° C 43% 1011.2 hPa 0 mm - - -
1787794202 34.44° C 43% 1011.2 hPa 0 mm - - -
1787793302 34.44° C 42% 1011.1 hPa 0 mm - - -

* Rain latest hour (hover to see other rain measurements)
** Current wind speed in m/s (hover to see current wind gust speed)